| time (UTC) | temp F | wind direction | speed knots | gust knots | rain 1hr in | rain 24hr in | rain mn in | humidity % | barometer mb |
| 20260502231803 | 49 | 45 | 0.0 | 1.7 | 0.00 | 0.00 | 0.00 | 82 | 1021.7 |
| 20260502230903 | 49 | 45 | 0.0 | 1.7 | 0.00 | 0.00 | 0.00 | 81 | 1021.3 |
| 20260502230003 | 50 | 22 | 0.0 | 1.7 | 0.00 | 0.00 | 0.00 | 82 | 1021.6 |
| 20260502225403 | 49 | 4 | 0.9 | 1.7 | 0.00 | 0.00 | 0.00 | 84 | 1021.7 |
| 20260502224503 | 48 | 0 | 0.0 | 0.0 | 0.00 | 0.00 | 0.00 | 86 | 1021.8 |
| 20260502223603 | 49 | 41 | 0.0 | 1.7 | 0.00 | 0.00 | 0.00 | 85 | 1021.8 |
| 20260502222703 | 49 | 2 | 1.7 | 1.7 | 0.00 | 0.00 | 0.00 | 83 | 1021.8 |
| 20260502221803 | 50 | 360 | 0.9 | 1.7 | 0.00 | 0.00 | 0.00 | 81 | 1022.1 |
| 20260502220903 | 50 | 37 | 0.0 | 1.7 | 0.00 | 0.00 | 0.00 | 82 | 1022.1 |
| 20260502220217 | 51 | 64 | 0.0 | 1.7 | 0.00 | 0.00 | 0.00 | 81 | 1022.0 |
| 20260502215617 | 50 | 67 | 0.9 | 1.7 | 0.00 | 0.00 | 0.00 | 82 | 1021.8 |
| 20260502214503 | 50 | 49 | 0.0 | 1.7 | 0.00 | 0.00 | 0.00 | 82 | 1022.1 |
| 20260502213603 | 51 | 360 | 0.0 | 1.7 | 0.00 | 0.00 | 0.00 | 82 | 1022.2 |
| 20260502212917 | 51 | 360 | 0.0 | 1.7 | 0.00 | 0.00 | 0.00 | 80 | 1022.1 |
| 20260502211803 | 51 | 360 | 0.0 | 1.7 | 0.00 | 0.00 | 0.00 | 80 | 1021.8 |
| 20260502210903 | 52 | 346 | 0.9 | 1.7 | 0.00 | 0.00 | 0.00 | 79 | 1021.8 |
| 20260502210217 | 52 | 355 | 0.0 | 1.7 | 0.00 | 0.00 | 0.00 | 79 | 1021.8 |
| 20260502205403 | 52 | 48 | 0.9 | 1.7 | 0.00 | 0.00 | 0.00 | 78 | 1022.0 |
| 20260502204503 | 53 | 0 | 0.0 | 0.0 | 0.00 | 0.00 | 0.00 | 76 | 1022.0 |
| 20260502203603 | 54 | 67 | 0.0 | 1.7 | 0.00 | 0.00 | 0.00 | 75 | 1022.1 |
| 20260502202703 | 53 | 67 | 0.9 | 1.7 | 0.00 | 0.00 | 0.00 | 75 | 1021.9 |
| 20260502201803 | 53 | 7 | 1.7 | 1.7 | 0.00 | 0.00 | 0.00 | 74 | 1022.0 |
| 20260502200903 | 55 | 292 | 0.0 | 1.7 | 0.00 | 0.00 | 0.00 | 71 | 1022.2 |
| 20260502200003 | 55 | 303 | 0.0 | 1.7 | 0.00 | 0.00 | 0.00 | 72 | 1021.9 |
| 20260502195403 | 55 | 346 | 0.9 | 1.7 | 0.00 | 0.00 | 0.00 | 72 | 1022.1 |
| 20260502194503 | 55 | 360 | 0.0 | 1.7 | 0.00 | 0.00 | 0.00 | 71 | 1022.1 |
| 20260502193603 | 56 | 360 | 0.0 | 1.7 | 0.00 | 0.00 | 0.00 | 69 | 1022.0 |
| 20260502192703 | 57 | 45 | 0.0 | 1.7 | 0.00 | 0.00 | 0.00 | 68 | 1022.1 |
| 20260502191803 | 57 | 30 | 0.9 | 1.7 | 0.00 | 0.00 | 0.00 | 68 | 1021.9 |
| 20260502190903 | 58 | 352 | 0.0 | 1.7 | 0.00 | 0.00 | 0.00 | 69 | 1021.9 |
| 20260502190218 | 59 | 360 | 0.0 | 1.7 | 0.00 | 0.00 | 0.00 | 62 | 1021.9 |
| 20260502185403 | 59 | 20 | 0.0 | 1.7 | 0.00 | 0.00 | 0.00 | 62 | 1021.8 |
| 20260502184717 | 58 | 330 | 0.9 | 1.7 | 0.00 | 0.00 | 0.00 | 68 | 1021.7 |
| 20260502183603 | 61 | 293 | 0.9 | 1.7 | 0.00 | 0.00 | 0.00 | 59 | 1021.7 |
| 20260502182703 | 62 | 341 | 0.9 | 1.7 | 0.00 | 0.00 | 0.00 | 56 | 1021.5 |
| 20260502181803 | 63 | 334 | 0.9 | 1.7 | 0.00 | 0.00 | 0.00 | 56 | 1021.8 |
| 20260502180903 | 64 | 353 | 0.9 | 1.7 | 0.00 | 0.00 | 0.00 | 58 | 1021.3 |
| 20260502163603 | 72 | 269 | 3.5 | 5.2 | 0.00 | 0.00 | 0.00 | 40 | 1021.5 |
| 20260502162703 | 74 | 265 | 1.7 | 3.5 | 0.00 | 0.00 | 0.00 | 39 | 1021.6 |
| 20260502161803 | 74 | 267 | 1.7 | 3.5 | 0.00 | 0.00 | 0.00 | 39 | 1021.7 |
| 20260502160903 | 74 | 271 | 1.7 | 6.1 | 0.00 | 0.00 | 0.00 | 40 | 1021.8 |
| 20260502151803 | 76 | 248 | 2.6 | 7.8 | 0.00 | 0.00 | 0.00 | 37 | 1021.9 |
| 20260502150903 | 76 | 252 | 3.5 | 7.8 | 0.00 | 0.00 | 0.00 | 39 | 1022.0 |
| 20260502123603 | 76 | 272 | 1.7 | 9.6 | 0.00 | 0.00 | 0.00 | 34 | 1023.2 |
| 20260502122703 | 77 | 265 | 2.6 | 9.6 | 0.00 | 0.00 | 0.00 | 35 | 1023.4 |
| 20260502121803 | 76 | 269 | 1.7 | 11.3 | 0.00 | 0.00 | 0.00 | 35 | 1023.4 |
| 20260502121118 | 76 | 266 | 3.5 | 12.2 | 0.00 | 0.00 | 0.00 | 35 | 1023.5 |
| 20260502115403 | 77 | 265 | 2.6 | 12.2 | 0.00 | 0.00 | 0.00 | 35 | 1023.7 |
| 20260502114503 | 75 | 284 | 4.3 | 12.2 | 0.00 | 0.00 | 0.00 | 34 | 1023.7 |
| 20260502113603 | 76 | 262 | 3.5 | 9.6 | 0.00 | 0.00 | 0.00 | 33 | 1023.8 |
| 20260502112703 | 76 | 272 | 3.5 | 9.6 | 0.00 | 0.00 | 0.00 | 35 | 1023.9 |
| 20260502111803 | 76 | 265 | 2.6 | 7.0 | 0.00 | 0.00 | 0.00 | 33 | 1024.1 |
| 20260502111118 | 75 | 274 | 4.3 | 7.0 | 0.00 | 0.00 | 0.00 | 34 | 1024.2 |
| 20260502110217 | 76 | 262 | 1.7 | 11.3 | 0.00 | 0.00 | 0.00 | 35 | 1024.3 |
| 20260502105619 | 75 | 273 | 3.5 | 11.3 | 0.00 | 0.00 | 0.00 | 35 | 1024.2 |
| 20260502104718 | 76 | 256 | 2.6 | 6.1 | 0.00 | 0.00 | 0.00 | 35 | 1024.3 |
| 20260502103603 | 75 | 272 | 2.6 | 7.0 | 0.00 | 0.00 | 0.00 | 34 | 1024.7 |
| 20260502102703 | 75 | 262 | 2.6 | 9.6 | 0.00 | 0.00 | 0.00 | 35 | 1024.6 |
| 20260502100903 | 74 | 281 | 2.6 | 9.6 | 0.00 | 0.00 | 0.00 | 36 | 1024.9 |
| 20260502090903 | 73 | 256 | 3.5 | 3.5 | 0.00 | 0.00 | 0.00 | 35 | 1025.3 |
| 20260502070903 | 62 | 91 | 0.9 | 1.7 | 0.00 | 0.00 | 0.00 | 58 | 1026.2 |
| 20260502070003 | 62 | 93 | 0.0 | 1.7 | 0.00 | 0.00 | 0.00 | 59 | 1026.5 |
| 20260502065617 | 61 | 100 | 0.9 | 1.7 | 0.00 | 0.00 | 0.00 | 58 | 1026.3 |
| 20260502064503 | 60 | 96 | 1.7 | 1.7 | 0.00 | 0.00 | 0.00 | 60 | 1026.4 |
| 20260502063603 | 58 | 100 | 0.9 | 1.7 | 0.00 | 0.00 | 0.00 | 63 | 1026.5 |
| 20260502062703 | 56 | 129 | 0.9 | 1.7 | 0.00 | 0.00 | 0.00 | 67 | 1026.5 |
| 20260502061803 | 54 | 135 | 1.7 | 1.7 | 0.00 | 0.00 | 0.00 | 70 | 1026.6 |
| 20260502061118 | 55 | 115 | 0.9 | 1.7 | 0.00 | 0.00 | 0.00 | 68 | 1026.6 |
| 20260502060004 | 53 | 93 | 0.9 | 1.7 | 0.00 | 0.00 | 0.00 | 73 | 1026.8 |
| 20260502055403 | 53 | 83 | 0.9 | 1.7 | 0.00 | 0.00 | 0.00 | 72 | 1026.4 |
| 20260502054503 | 51 | 133 | 0.9 | 1.7 | 0.00 | 0.00 | 0.00 | 74 | 1026.5 |
| 20260502053603 | 50 | 157 | 0.0 | 1.7 | 0.00 | 0.00 | 0.00 | 77 | 1026.7 |
| 20260502052703 | 50 | 0 | 0.0 | 0.0 | 0.00 | 0.00 | 0.00 | 79 | 1026.6 |
| 20260502051803 | 48 | 135 | 0.0 | 1.7 | 0.00 | 0.00 | 0.00 | 81 | 1026.7 |
| 20260502050903 | 46 | 135 | 0.0 | 1.7 | 0.00 | 0.00 | 0.00 | 82 | 1026.8 |
| 20260502050003 | 46 | 121 | 0.0 | 1.7 | 0.00 | 0.00 | 0.00 | 84 | 1026.6 |
| 20260502045403 | 45 | 99 | 0.0 | 1.7 | 0.00 | 0.00 | 0.00 | 86 | 1026.7 |
| 20260502044718 | 44 | 35 | 0.0 | 1.7 | 0.00 | 0.00 | 0.00 | 88 | 1026.7 |
| 20260502043603 | 42 | 0 | 0.0 | 0.0 | 0.00 | 0.00 | 0.00 | 91 | 1026.6 |
| 20260502042703 | 41 | 45 | 0.0 | 1.7 | 0.00 | 0.00 | 0.00 | 91 | 1026.7 |
| 20260502042018 | 41 | 56 | 0.0 | 1.7 | 0.00 | 0.00 | 0.00 | 91 | 1026.7 |
| 20260502040903 | 41 | 58 | 0.0 | 1.7 | 0.00 | 0.00 | 0.00 | 90 | 1026.6 |
| 20260502040003 | 42 | 280 | 0.9 | 1.7 | 0.00 | 0.00 | 0.00 | 89 | 1026.7 |
| 20260502035403 | 43 | 286 | 0.0 | 1.7 | 0.00 | 0.00 | 0.00 | 88 | 1026.5 |
| 20260502034717 | 43 | 295 | 0.0 | 1.7 | 0.00 | 0.00 | 0.00 | 89 | 1026.8 |
| 20260502033603 | 42 | 347 | 0.9 | 1.7 | 0.00 | 0.00 | 0.00 | 89 | 1026.5 |
| 20260502032703 | 42 | 87 | 0.9 | 1.7 | 0.00 | 0.00 | 0.00 | 89 | 1026.5 |
| 20260502031803 | 42 | 0 | 0.0 | 0.0 | 0.00 | 0.00 | 0.00 | 90 | 1026.5 |
| 20260502030904 | 42 | 90 | 0.0 | 1.7 | 0.00 | 0.00 | 0.00 | 90 | 1026.5 |
| 20260502030003 | 42 | 90 | 0.0 | 1.7 | 0.00 | 0.00 | 0.00 | 90 | 1026.6 |
| 20260502025403 | 42 | 90 | 0.0 | 1.7 | 0.00 | 0.00 | 0.00 | 90 | 1026.8 |
| 20260502024503 | 42 | 0 | 0.0 | 0.0 | 0.00 | 0.00 | 0.00 | 90 | 1026.8 |
| 20260502023603 | 43 | 0 | 0.0 | 0.0 | 0.00 | 0.00 | 0.00 | 90 | 1027.0 |
| 20260502022703 | 42 | 90 | 0.0 | 1.7 | 0.00 | 0.00 | 0.00 | 90 | 1026.7 |
| 20260502021803 | 42 | 90 | 0.0 | 1.7 | 0.00 | 0.00 | 0.00 | 89 | 1026.8 |
| 20260502020903 | 42 | 60 | 0.0 | 1.7 | 0.00 | 0.00 | 0.00 | 89 | 1026.7 |
| 20260502020003 | 43 | 44 | 0.9 | 1.7 | 0.00 | 0.00 | 0.00 | 88 | 1026.6 |
| 20260502015403 | 43 | 344 | 1.7 | 1.7 | 0.00 | 0.00 | 0.00 | 87 | 1026.6 |
| 20260502014503 | 43 | 297 | 0.9 | 3.5 | 0.00 | 0.00 | 0.00 | 88 | 1026.6 |
| 20260502013603 | 43 | 28 | 0.9 | 1.7 | 0.00 | 0.00 | 0.00 | 88 | 1026.6 |
| 20260502012703 | 43 | 67 | 0.0 | 1.7 | 0.00 | 0.00 | 0.00 | 87 | 1026.8 |
| 20260502012018 | 43 | 67 | 0.0 | 1.7 | 0.00 | 0.00 | 0.00 | 87 | 1026.8 |
| 20260502011118 | 43 | 67 | 0.0 | 1.7 | 0.00 | 0.00 | 0.00 | 89 | 1026.9 |
| 20260502010003 | 43 | 53 | 0.9 | 1.7 | 0.00 | 0.00 | 0.00 | 89 | 1027.0 |
| 20260502005403 | 43 | 42 | 0.0 | 1.7 | 0.00 | 0.00 | 0.00 | 88 | 1027.1 |
| 20260502004718 | 43 | 12 | 0.0 | 1.7 | 0.00 | 0.00 | 0.00 | 87 | 1027.0 |
| 20260502003603 | 44 | 315 | 0.0 | 1.7 | 0.00 | 0.00 | 0.00 | 85 | 1027.0 |
| 20260502002703 | 44 | 309 | 0.0 | 1.7 | 0.00 | 0.00 | 0.00 | 85 | 1027.3 |
| 20260502002018 | 45 | 322 | 0.0 | 1.7 | 0.00 | 0.00 | 0.00 | 84 | 1027.2 |
| 20260502000903 | 46 | 22 | 0.0 | 1.7 | 0.00 | 0.00 | 0.00 | 83 | 1027.1 |
| 20260502000004 | 46 | 317 | 0.0 | 1.7 | 0.00 | 0.00 | 0.00 | 83 | 1027.3 |
| 20260501235403 | 46 | 56 | 0.9 | 1.7 | 0.00 | 0.00 | 0.00 | 82 | 1027.4 |
| 20260501234718 | 46 | 57 | 0.9 | 1.7 | 0.00 | 0.00 | 0.00 | 82 | 1027.0 |
| 20260501233603 | 45 | 51 | 1.7 | 1.7 | 0.00 | 0.00 | 0.00 | 82 | 1027.2 |
| 20260501232703 | 46 | 337 | 0.0 | 1.7 | 0.00 | 0.00 | 0.00 | 80 | 1027.3 |